Accueil
METAR-TAF:

METAR-TAF

Aéroports :

Monte Scuro, Italie

latitude: 39-20N, longitude: 016-24E, altitude: 1710 m

Observation

Le bulletin a été fait il y a 31 minutes, à 14:55 UTC
Vent 2 kt de direction variable
Température 9°C
Humidité 71%
Pression 1030 hPa
Visibilité 10 km ou plus
Nuages épars à une hauteur de 500 ft

METAR: LIBQ 191455Z VRB02KT 9999 SCT005 09/04 Q1030

Heure: 17:26 (15:26 UTC)


TAF: absent

Observations et prévisions météorologiques de plus de 4000 aéroports (messages METAR et TAF).

Les stations disponibles sont représentées par des disques jaunes et rouges sur la carte.

Passer la souris dessus pour voir le nom de la station.

Cliquer dessus pour voir les observations et prévisions météorologiques.

Pour changer de carte: cliquez sur les boutons verts avec une croix noire pour zoomer, sur le bouton vert avec un tiret pour effectuer un zoom arrière, ou sur les flèches vertes pour les cartes adjacentes.


METAR-TAF: